Regional Weather Roundup
Issued by NWS

Home | Current Version | Previous Version | Graphics & Text | Print | Product List | Glossary On
Versions: 1 2 3 4 5 6 7 8 9 10 11 12 13 14 15 16 17 18 19 20 21 22 23 24 25 26 27 28 29 30 31 32 33 34 35 36 37 38 39 40 41 42 43 44 45 46 47 48 49 50
682
ASUS43 KFSD 280802
RWRSD

WEATHER ROUNDUP FOR SOUTH DAKOTA
NATIONAL WEATHER SERVICE SIOUX FALLS SD
300 AM CDT SUN AUG 28 2016

NOTE: "FAIR" INDICATES FEW OR NO CLOUDS BELOW 12,000 FEET WITH NO
SIGNIFICANT WEATHER AND/OR OBSTRUCTIONS TO VISIBILITY.


SDZ001>005-009-010-012>017-280900-
NORTHWEST AND NORTH CENTRAL SOUTH DAKOTA

CITY           SKY/WX    TMP DP  RH WIND       PRES   REMARKS
FAITH            N/A     63  57  81 SE13      29.88F
MOBRIDGE       CLEAR     67  60  78 SE9       29.88F
$$

SDZ012>016-024>037-041>051-057-063-072>074-280900-
SOUTHWEST AND SOUTH CENTRAL SOUTH DAKOTA

CITY           SKY/WX    TMP DP  RH WIND       PRES   REMARKS
RAPID CTY ARPT CLEAR     63  51  65 S6        29.92F
PIERRE         CLEAR     71  60  68 S9        29.90S
CUSTER         CLEAR     50  42  74 W3        30.08S
ELLSWORTH AFB  CLEAR     64  51  60 S9        29.91F
PHILIP         CLEAR     67  57  70 CALM      29.91S
PINE RIDGE     CLEAR     69  62  78 S17G29    29.97S
WINNER         FAIR      72  65  78 S13       29.96S
$$

SDZ004>011-016>023-039-040-280900-
NORTHEAST SOUTH DAKOTA

CITY           SKY/WX    TMP DP  RH WIND       PRES   REMARKS
ABERDEEN       CLOUDY    67  62  84 S7        29.94F
WATERTOWN      CLOUDY    67  63  87 SE5       30.01R
BROOKINGS      CLEAR     64  62  93 SE10      30.02R
$$

SDZ017-020-022-023-036>040-048>070-280900-
SOUTHEAST SOUTH DAKOTA

CITY           SKY/WX    TMP DP  RH WIND       PRES   REMARKS
SIOUX FALLS    CLEAR     68  65  90 S9        30.02F
HURON          CLEAR     67  64  90 S13       29.94S
CHAMBERLAIN    CLEAR     71  66  83 S6        29.95S
MITCHELL       CLEAR     69  65  86 S10       29.97F
YANKTON        CLEAR     68  63  83 S10       30.00F
$$

ABBREVIATIONS USED IN REMARKS
   TC - TEMPERATURE IN CELSIUS
  WCI - WIND CHILL INDEX
   HX - HEAT INDEX
  VSB - VISIBILITY





USA.gov is the U.S. government's official web portal to all federal, state and local government web resources and services.